Location: Alsip
(41.6689°N, 87.7387°W)
Time: 15:13:42
(UTC+00:00)

SL-16 R/B - Pass Details

Date: 14 July 2020
Orbit: 839 x 850 km, 71.0° (Epoch: 12 August)

Event Time Altitude Azimuth Distance (km) Brightness Sun altitude
Exits shadow 03:51:36 13° 210° (SSW) 2,221 4.1 -20.4°
Maximum altitude 03:56:36 74° 294° (WNW) 882 2.3 -20.9°
Drops below altitude 10° 04:02:18 10° 21° (NNE) 2,480 5.2 -21.4°
Sets 04:04:47 0° 23° (NNE) 3,420 5.9 -21.6°
